SCP
0 0 0 0 0 0 0 0 0 0 1 2 3 4 4 4 5 5 6 6 7 8 7 6 6 5 5 5 5 4 3 2 1 1 1 1 1 1 1 1 1 1 1 1
0 0 0 0 0 0 0 1 1 1 2 3 4 5 5 5 5 6 6 6 7 9 8 6 6 6 5 5 4 3 3 2 2 1 1 1 1 1 1 1 1 1 1 1
0 0 0 0 0 0 1 1 2 2 3 4 5 6 6 7 8 9 9 8 8 9 9 7 7 7 6 5 3 3 2 2 2 2 1 1 1 1 1 1 1 1 1 1
0 0 0 0 0 1 1 2 3 3 4 6 6 7 7 9 10 11 12 10 9 11 11 10 10 9 7 4 3 3 2 2 2 2 2 1 1 1 1 1 1 1 0 0
0 0 0 1 1 1 2 3 4 5 6 7 7 7 8 10 11 11 11 10 10 12 13 13 12 9 6 4 3 2 2 2 2 2 1 1 1 1 1 1 1 0 0 0
0 0 1 2 3 3 3 5 6 6 7 7 6 6 8 10 11 10 9 9 10 12 13 12 10 7 5 4 3 2 2 1 1 1 1 1 1 1 1 1 1 0 0 0
0 0 1 4 4 3 3 5 6 7 7 6 6 5 7 9 10 10 11 11 12 12 12 9 7 6 5 4 3 2 2 1 1 1 1 1 1 1 1 1 1 1 1 1
1 1 2 4 5 4 4 5 6 7 7 7 7 7 8 9 10 12 14 14 14 13 12 10 7 6 5 4 3 2 2 2 2 1 1 1 0 0 1 1 1 1 1 1
2 2 3 5 5 4 5 6 6 6 7 8 10 10 11 11 11 12 14 15 15 14 13 10 8 6 5 4 4 3 3 3 2 1 1 1 0 0 1 1 1 1 0 0
4 4 4 5 5 5 6 7 7 7 7 9 10 11 11 11 11 12 12 12 12 13 12 9 7 6 5 5 5 5 4 3 2 2 1 1 1 1 1 1 1 1 0 0
5 4 4 5 5 5 6 7 9 9 9 9 10 11 10 10 11 11 11 10 9 9 9 8 7 6 6 6 7 6 5 4 3 2 1 1 1 1 1 1 1 1 0 0
4 4 4 4 5 5 6 6 8 11 12 12 12 11 11 10 11 11 10 9 8 8 8 8 7 7 6 7 7 7 6 4 3 2 2 1 1 1 1 1 1 0 0 0
5 5 5 5 6 6 5 5 7 9 11 12 12 11 10 9 10 10 9 9 8 6 6 6 6 6 6 6 7 7 6 4 3 2 2 1 1 1 1 1 0 0 0 0
7 7 7 6 7 6 6 6 6 6 8 9 9 8 7 7 8 8 7 6 5 4 3 3 4 4 4 5 5 6 5 3 2 1 1 1 1 1 1 1 0 0 0 0
8 7 6 6 6 5 5 5 5 4 5 6 6 5 4 4 4 4 4 3 3 2 2 2 2 2 2 3 4 4 4 3 2 1 0 0 0 0 0 0 0 0 0 0
5 5 4 3 3 3 3 3 3 2 2 3 3 3 3 2 2 1 2 2 1 1 1 1 2 2 2 2 2 3 3 2 2 1 0 0 0 0 0 0 0 0 0 0
2 2 2 2 1 1 1 1 1 1 1 1 2 2 2 2 1 1 1 1 1 1 1 1 1 1 1 2 3 3 3 2 1 1 0 0 0 0 0 0 0 0 0 0
1 1 1 1 1 1 1 1 1 1 1 1 1 2 2 2 1 1 1 1 1 1 1 1 1 1 1 2 3 4 4 3 2 1 0 0 0 0 0 0 0 0 0 0
1 1 1 1 0 0 0 0 0 0 1 1 1 1 2 2 1 1 1 1 1 1 1 1 0 0 1 2 3 5 5 4 2 1 0 0 0 0 0 0 0 0 0 0
1 1 1 1 0 0 0 0 0 1 1 1 1 1 1 1 1 1 1 1 1 1 1 0 0 0 0 1 2 4 4 4 3 1 1 0 0 0 0 0 0 0 0 0
1 1 1 1 1 1 0 0 1 1 1 1 1 1 0 0 0 1 1 1 0 0 0 0 0 0 0 0 1 2 3 3 3 2 1 0 0 0 0 0 0 0 0 0
0 0 0 1 1 1 0 0 0 1 1 1 1 0 0 0 0 0 0 0 0 0 0 0 0 0 0 0 0 1 2 2 3 2 1 1 0 0 0 0 0 0 0 0
0 0 1 1 1 1 0 0 0 1 1 1 0 0 0 0 0 0 0 0 0 0 0 0 0 0 0 0 0 0 1 1 2 2 2 1 1 0 0 0 0 0 0 0
0 0 1 1 1 0 0 0 0 0 0 0 0 0 0 0 0 0 0 0 0 0 0 0 0 0 0 0 0 0 0 1 2 2 2 1 1 1 0 0 0 0 0 0
0 0 0 0 0 0 0 0 0 0 0 0 0 0 1 1 0 0 0 0 0 0 0 0 0 0 0 0 0 0 0 1 1 2 2 1 1 1 0 0 0 0 0 0
0 0 0 0 0 0 0 0 0 0 0 0 0 0 0 0 0 0 0 0 0 0 0 0 0 0 0 0 0 0 0 0 1 1 1 1 1 1 0 0 0 0 0 0
0 0 0 0 0 0 0 0 0 0 0 0 0 0 0 0 0 0 0 0 0 0 0 0 0 0 0 0 0 0 0 0 1 1 1 1 1 0 0 0 0 0 0 0
Wind_Speed
5 4 2 1 3 2 3 7 8 9 10 11 11 11 10 9 10 11 11 10 10 10 8 9 8 8 8 7 7 7 7 6 5 4 4 4 4 4 4 3 3 3 3 3
1 1 2 2 4 4 3 3 5 4 7 8 6 6 8 11 13 13 12 11 10 10 10 10 10 9 8 7 7 7 7 6 5 5 4 4 4 4 4 4 4 4 4 3
0 2 4 3 4 2 3 3 3 6 8 4 4 8 11 12 13 14 14 13 13 12 11 11 10 10 9 8 8 8 7 6 6 5 5 4 4 4 4 4 4 4 3 3
2 3 3 9 4 1 0 3 3 1 3 7 8 8 7 9 12 12 12 12 12 11 10 9 8 8 8 8 8 7 7 6 6 5 5 4 5 5 4 3 4 3 3 3
4 2 5 7 4 1 1 3 5 2 1 1 2 4 2 2 8 11 12 11 9 10 10 10 10 10 10 8 7 7 7 6 6 6 6 5 5 5 4 4 3 3 3 3
4 3 5 6 6 3 4 2 5 3 3 3 5 4 3 2 4 5 7 8 9 9 9 10 9 10 10 9 8 7 7 6 6 6 6 6 5 4 3 4 3 3 3 3
4 3 6 6 6 4 3 5 4 2 2 3 3 4 3 2 3 5 6 8 10 11 10 9 9 10 9 8 7 6 6 6 6 6 6 6 5 4 4 4 4 3 3 2
4 3 7 6 4 2 4 3 1 2 3 4 3 4 4 4 5 6 7 7 9 9 8 7 8 10 9 7 6 6 7 6 6 6 6 5 5 4 4 5 5 4 3 3
6 6 4 2 2 1 1 2 2 2 3 5 5 5 5 5 5 6 8 7 7 9 8 6 6 8 8 6 7 7 7 7 6 6 5 5 5 5 4 4 4 3 3 3
3 2 3 4 6 6 5 3 3 3 4 5 5 5 5 5 5 6 6 6 6 8 8 6 5 6 6 6 7 8 8 7 6 6 5 4 3 3 4 3 3 3 3 3
2 2 5 8 7 6 6 6 6 6 5 4 6 6 5 5 5 5 5 5 6 8 8 7 6 6 6 6 7 7 7 6 6 5 6 5 4 2 2 2 2 4 4 4
2 2 1 2 4 5 6 6 5 6 7 5 5 5 5 4 4 4 4 5 6 6 6 6 6 6 4 5 7 8 6 6 5 5 5 5 5 4 6 3 3 2 3 4
3 2 2 2 2 4 4 3 3 5 5 5 4 4 5 4 3 4 4 5 6 6 6 6 6 5 4 4 5 6 6 5 4 5 5 5 5 5 3 3 5 5 4 4
1 1 2 2 2 3 3 3 3 4 4 4 4 4 4 3 3 4 5 4 5 6 5 5 5 4 3 5 5 5 5 5 5 4 4 4 4 4 4 4 3 1 2 3
1 1 2 1 2 3 2 2 3 3 3 3 3 4 4 3 3 2 3 5 6 6 5 5 5 3 3 4 5 5 4 4 4 4 4 4 4 4 3 4 3 2 2 1
1 2 2 2 2 3 3 2 1 1 2 2 2 3 3 3 3 2 3 4 5 5 4 4 4 3 3 4 5 4 4 6 5 4 4 4 4 4 3 4 3 3 3 3
1 1 1 1 0 1 1 1 0 1 1 2 3 3 4 4 3 2 2 3 4 4 4 4 3 3 3 4 4 4 3 4 6 4 3 4 4 4 4 4 4 4 3 4
2 3 3 3 3 2 2 1 1 1 2 2 4 4 4 5 4 3 2 2 3 3 2 3 3 3 3 3 4 3 3 3 3 3 3 3 3 3 4 4 4 4 3 3
1 1 1 1 2 2 2 2 2 2 2 2 4 4 4 4 4 4 3 3 3 3 2 2 4 4 3 3 4 3 3 4 3 3 3 4 4 3 3 4 4 3 3 3
2 2 1 1 1 0 1 1 2 1 2 3 4 4 3 3 4 4 4 3 3 4 4 4 4 3 3 3 4 3 4 4 4 3 3 3 4 3 3 4 4 4 4 3
4 3 2 2 1 1 0 1 1 2 2 3 4 5 4 3 3 4 3 2 2 2 4 5 3 2 2 3 4 3 4 4 4 4 4 4 4 4 4 4 4 4 3 3
3 2 2 1 1 2 1 1 1 1 1 2 3 3 4 3 3 2 2 2 2 3 3 2 2 3 3 3 3 3 3 4 3 3 3 4 4 4 4 4 4 4 3 4
2 1 1 1 1 1 2 2 2 2 3 3 3 3 4 3 3 3 2 1 2 4 3 2 4 5 5 3 2 3 3 3 3 3 3 3 3 3 3 3 3 3 3 3
2 1 0 1 2 3 2 2 2 2 3 3 3 3 3 3 2 1 2 4 5 5 3 4 5 5 4 2 2 2 2 2 3 3 3 3 2 3 3 3 3 2 2 3
2 1 1 2 2 1 1 2 4 4 4 3 4 3 3 3 3 2 3 4 5 5 3 4 5 4 3 2 2 2 2 2 2 3 2 2 2 2 2 2 2 2 2 2
1 0 1 1 2 2 2 2 3 2 3 3 3 3 3 3 4 3 3 3 4 4 3 2 2 3 2 3 3 3 3 3 3 2 2 2 2 2 1 1 2 1 1 1
2 2 2 3 3 3 3 3 3 2 2 3 3 3 3 3 3 3 3 3 3 3 2 2 2 2 3 3 4 3 3 3 3 3 3 2 2 2 2 2 1 1 1 1
Wind_Direction
193 202 169 261 297 286 187 186 188 220 203 215 204 193 183 173 168 161 165 168 169 170 166 160 157 158 157 153 151 148 146 150 158 153 143 143 141 136 125 117 117 108 98 85
36 23 41 333 305 304 278 221 207 210 230 232 208 176 167 168 170 169 170 174 174 168 165 163 163 161 156 154 154 149 150 154 148 137 133 133 132 126 117 110 102 94 93 92
288 358 43 301 263 278 293 293 192 209 233 218 172 180 181 176 173 174 173 174 174 173 170 168 165 159 155 154 149 146 147 146 143 138 136 140 136 121 119 118 111 104 98 98
111 71 222 244 260 243 46 350 337 240 205 184 186 193 184 173 169 172 174 173 172 169 163 158 151 145 143 141 142 143 143 144 142 138 137 132 127 126 121 116 115 113 109 105
110 151 273 295 315 350 101 352 351 43 88 146 140 86 22 202 172 175 176 171 164 160 153 148 148 146 138 138 141 143 149 152 150 145 142 138 137 138 132 121 113 108 107 104
123 153 221 253 293 308 90 354 328 31 75 90 96 113 245 244 170 161 154 148 145 140 135 142 146 141 137 143 147 154 158 154 150 148 146 147 145 139 133 126 126 122 109 107
157 199 252 269 311 27 95 239 301 21 72 103 131 183 209 132 122 131 129 134 138 138 140 147 144 138 139 145 155 154 144 140 141 143 142 142 138 135 136 133 126 120 114 101
156 186 254 303 25 99 213 241 324 45 67 78 84 85 83 92 103 109 113 117 126 129 130 133 138 138 140 148 147 139 137 135 136 139 142 142 139 139 137 137 133 130 122 102
180 202 243 335 109 203 160 86 28 52 85 102 91 80 86 85 91 99 108 113 116 122 121 121 132 138 141 145 139 136 134 135 135 132 128 138 144 145 139 138 141 143 142 142
60 17 2 23 34 19 15 36 52 81 94 99 99 96 95 94 91 94 100 111 118 122 124 126 126 126 134 140 140 136 137 139 139 133 128 121 123 135 143 153 158 159 159 158
56 341 11 12 15 7 8 24 41 49 55 85 107 105 103 100 102 101 101 108 122 127 131 132 128 125 128 134 136 136 140 141 139 133 132 119 103 88 127 141 178 177 179 172
206 235 164 285 330 7 22 29 36 58 49 53 89 104 102 101 102 106 112 114 115 115 120 123 121 118 126 140 141 141 143 145 146 141 137 135 130 98 54 68 77 119 163 160
182 211 203 245 354 12 13 23 45 65 70 59 58 89 99 106 109 112 112 117 123 124 125 122 118 117 124 134 137 141 145 149 150 151 152 154 154 150 138 66 60 65 100 145
153 95 34 3 18 6 6 20 45 66 75 83 82 80 87 99 108 115 124 129 123 115 116 118 116 118 124 128 134 140 140 143 146 154 155 159 161 161 158 155 141 69 50 104
278 150 172 179 54 27 7 37 48 41 64 67 86 100 101 106 112 118 125 121 115 112 115 118 117 123 126 130 136 140 141 146 150 150 152 155 153 149 146 149 146 141 114 74
199 107 96 68 37 7 5 34 51 75 98 98 108 121 129 127 127 125 126 127 126 131 134 129 133 151 141 136 141 144 149 148 148 150 152 155 154 152 153 155 155 156 164 169
160 140 118 95 341 333 319 314 195 186 154 143 142 137 123 114 111 123 134 127 131 142 144 145 158 160 146 147 152 155 156 157 150 146 156 163 163 164 165 165 166 169 179 180
210 197 183 182 192 222 242 232 195 179 194 181 155 148 145 143 145 156 161 131 119 116 143 165 162 151 150 156 158 155 156 157 155 157 159 159 162 164 163 165 168 168 169 173
61 105 146 199 205 211 208 203 198 199 195 164 155 156 156 158 152 156 150 146 155 174 209 186 158 153 157 164 152 152 156 154 150 152 154 154 152 156 161 162 165 171 176 178
26 9 355 340 333 271 212 214 201 187 188 165 145 142 149 165 161 157 154 172 200 201 189 169 159 159 161 164 155 152 156 159 158 157 155 155 157 162 165 167 168 171 179 190
340 343 353 355 353 13 72 152 151 173 187 171 158 163 172 178 167 156 153 178 240 186 157 153 151 154 150 148 144 146 154 158 159 163 166 168 168 171 173 174 178 183 189 197
315 320 341 13 67 28 360 24 115 137 141 141 146 144 148 147 142 141 156 176 183 150 140 140 139 144 137 131 128 136 149 155 161 165 169 172 172 176 184 188 190 195 199 204
334 344 27 55 75 52 26 36 75 102 110 122 138 146 148 145 146 146 148 168 133 128 119 127 134 126 115 106 114 128 144 152 158 163 167 172 175 176 181 190 193 192 196 203
0 358 2 82 75 69 54 44 69 89 100 99 100 113 123 117 90 89 125 127 125 119 107 114 116 110 98 87 103 112 121 140 150 152 156 163 166 165 166 173 182 190 192 199
358 354 61 88 88 89 84 77 76 73 73 73 77 82 90 115 128 127 113 115 121 112 101 107 107 102 93 91 95 96 96 110 124 130 133 140 149 159 166 167 175 184 189 204
354 27 107 120 120 116 103 93 87 82 88 83 69 69 77 84 95 98 102 110 112 108 104 100 96 91 89 90 89 88 88 88 93 99 109 114 116 114 112 111 128 151 179 190
23 49 69 69 66 79 91 95 95 89 92 99 89 71 74 80 85 89 93 99 102 102 105 104 98 96 92 89 85 79 76 82 86 88 89 90 97 102 103 108 118 117 109 95